• In Portugal
  • List of Countries
  • For 7 days
  • Water Temperature
  • Satellite Maps
  • Weather Map
  • Weather Widgets
  • user-avatar
    Login

    Hourly Weather Setserleg

    Today, 18 June, Monday

    Time Temperature Precipitation Wind Pressure Humidity
    00:00 +11°C° 0 mm 1 mps 612 mmHg 89%
    01:00 +11°C° 0 mm 1 mps 612 mmHg 88%
    02:00 +10°C° 0 mm 1 mps 612 mmHg 87%
    03:00 +10°C° 0 mm 1 mps 612 mmHg 87%
    04:00 +10°C° 0 mm 1 mps 612 mmHg 86%
    05:00 +11°C° 0 mm 1 mps 613 mmHg 81%
    06:00 +12°C° 0 mm 1 mps 613 mmHg 75%
    07:00 +14°C° 0 mm 1 mps 614 mmHg 66%
    08:00 +16°C° 0 mm 1 mps 615 mmHg 59%
    09:00 +18°C° 0 mm 1 mps 615 mmHg 52%
    10:00 +18°C° 0 mm 0 mps 615 mmHg 44%
    11:00 +21°C° 0 mm 1 mps 615 mmHg 42%
    12:00 +21°C° 0 mm 1 mps 615 mmHg 40%
    13:00 +21°C° 0 mm 2 mps 615 mmHg 37%
    14:00 +21°C° 0 mm 3 mps 615 mmHg 39%
    15:00 +21°C° 0 mm 3 mps 615 mmHg 41%
    16:00 +21°C° 0 mm 3 mps 615 mmHg 42%
    17:00 +20°C° 0 mm 3 mps 615 mmHg 50%
    18:00 +19°C° 0 mm 3 mps 614 mmHg 58%
    19:00 +17°C° 0 mm 3 mps 613 mmHg 70%
    20:00 +14°C° 0 mm 3 mps 613 mmHg 75%
    21:00 +14°C° 0 mm 2 mps 613 mmHg 79%
    22:00 +12°C° 0 mm 2 mps 613 mmHg 84%
    23:00 +12°C° 0 mm 1 mps 613 mmHg 83%

    Tomorrow, 19 June, Tuesday

    Time Temperature Precipitation Wind Pressure Humidity
    00:00 +12°C° 0 mm 1 mps 613 mmHg 82%
    01:00 +12°C° 0 mm 1 mps 613 mmHg 81%
    02:00 +11°C° 0 mm 1 mps 612 mmHg 82%
    03:00 +11°C° 0 mm 1 mps 612 mmHg 82%
    04:00 +11°C° 0 mm 1 mps 612 mmHg 82%
    05:00 +12°C° 0 mm 1 mps 612 mmHg 78%
    06:00 +13°C° 0 mm 1 mps 613 mmHg 73%
    07:00 +15°C° 0 mm 1 mps 613 mmHg 69%
    08:00 +16°C° 0 mm 1 mps 614 mmHg 63%
    09:00 +18°C° 0 mm 2 mps 614 mmHg 58%
    10:00 +20°C° 0 mm 2 mps 614 mmHg 52%
    11:00 +20°C° 0 mm 2 mps 614 mmHg 50%
    12:00 +21°C° 0 mm 2 mps 614 mmHg 48%
    13:00 +23°C° 0 mm 2 mps 614 mmHg 46%
    14:00 +23°C° 0.1 mm 2 mps 614 mmHg 48%
    15:00 +23°C° 0.1 mm 2 mps 614 mmHg 50%
    16:00 +23°C° 0.1 mm 2 mps 613 mmHg 52%
    17:00 +21°C° 0.1 mm 2 mps 613 mmHg 58%
    18:00 +19°C° 0.1 mm 2 mps 612 mmHg 64%
    19:00 +19°C° 0.1 mm 1 mps 612 mmHg 70%
    20:00 +17°C° 0 mm 2 mps 612 mmHg 70%
    21:00 +16°C° 0 mm 2 mps 611 mmHg 70%
    22:00 +15°C° 0 mm 2 mps 611 mmHg 71%
    23:00 +15°C° 0 mm 2 mps 611 mmHg 68%

    Day after tomorrow, 20 June, Wednesday

    Time Temperature Precipitation Wind Pressure Humidity
    00:00 +14°C° 0 mm 2 mps 611 mmHg 65%
    01:00 +14°C° 0 mm 2 mps 610 mmHg 62%
    02:00 +14°C° 0 mm 2 mps 610 mmHg 60%
    03:00 +13°C° 0 mm 2 mps 610 mmHg 58%
    04:00 +13°C° 0 mm 2 mps 610 mmHg 57%
    05:00 +14°C° 0 mm 2 mps 610 mmHg 56%
    06:00 +16°C° 0 mm 2 mps 611 mmHg 55%
    07:00 +17°C° 0 mm 2 mps 611 mmHg 54%
    08:00 +19°C° 0 mm 3 mps 612 mmHg 47%
    09:00 +22°C° 0 mm 4 mps 612 mmHg 41%
    10:00 +25°C° 0 mm 4 mps 613 mmHg 34%
    11:00 +26°C° 0 mm 4 mps 613 mmHg 32%
    12:00 +26°C° 0 mm 5 mps 613 mmHg 31%
    13:00 +27°C° 0 mm 5 mps 613 mmHg 30%
    14:00 +27°C° 0 mm 5 mps 612 mmHg 31%
    15:00 +27°C° 0 mm 5 mps 612 mmHg 32%
    16:00 +27°C° 0 mm 5 mps 612 mmHg 32%
    17:00 +25°C° 0 mm 4 mps 611 mmHg 38%
    18:00 +24°C° 0 mm 3 mps 611 mmHg 43%
    19:00 +21°C° 0 mm 2 mps 610 mmHg 48%
    20:00 +20°C° 0 mm 2 mps 610 mmHg 50%
    21:00 +18°C° 0 mm 2 mps 610 mmHg 52%
    22:00 +17°C° 0 mm 2 mps 610 mmHg 54%
    23:00 +16°C° 0.1 mm 2 mps 609 mmHg 58%

    21 June, Thursday

    Time Temperature Precipitation Wind Pressure Humidity
    00:00 +16°C° 0.1 mm 2 mps 609 mmHg 62%
    01:00 +15°C° 0.1 mm 1 mps 609 mmHg 67%
    02:00 +14°C° 0.2 mm 1 mps 609 mmHg 70%
    03:00 +14°C° 0.2 mm 1 mps 609 mmHg 74%
    04:00 +13°C° 0.2 mm 1 mps 609 mmHg 78%
    05:00 +15°C° 0.1 mm 1 mps 609 mmHg 75%
    06:00 +16°C° 0.1 mm 1 mps 610 mmHg 73%
    07:00 +18°C° 0.1 mm 1 mps 610 mmHg 70%
    08:00 +18°C° 0 mm 2 mps 611 mmHg 66%
    09:00 +19°C° 0 mm 2 mps 611 mmHg 61%
    10:00 +21°C° 0 mm 3 mps 611 mmHg 57%
    11:00 +21°C° 0.1 mm 3 mps 611 mmHg 55%
    12:00 +22°C° 0.1 mm 3 mps 611 mmHg 52%
    13:00 +24°C° 0.1 mm 2 mps 611 mmHg 50%
    14:00 +24°C° 0.2 mm 2 mps 611 mmHg 50%
    15:00 +24°C° 0.2 mm 2 mps 611 mmHg 51%
    16:00 +24°C° 0.2 mm 2 mps 611 mmHg 51%
    17:00 +23°C° 0.4 mm 2 mps 611 mmHg 57%
    18:00 +21°C° 0.4 mm 2 mps 610 mmHg 63%
    19:00 +20°C° 0.4 mm 2 mps 610 mmHg 69%
    20:00 +20°C° 0.4 mm 1 mps 610 mmHg 73%
    21:00 +18°C° 0.4 mm 1 mps 610 mmHg 77%
    22:00 +16°C° 0.4 mm 1 mps 609 mmHg 80%
    23:00 +16°C° 0.1 mm 1 mps 609 mmHg 81%

    22 June, Friday

    Time Temperature Precipitation Wind Pressure Humidity
    00:00 +15°C° 0.1 mm 1 mps 609 mmHg 82%
    01:00 +15°C° 0.1 mm 1 mps 609 mmHg 83%
    02:00 +15°C° 0.2 mm 1 mps 609 mmHg 82%
    03:00 +15°C° 0.2 mm 1 mps 609 mmHg 82%
    04:00 +15°C° 0.2 mm 1 mps 609 mmHg 82%
    05:00 +16°C° 0.5 mm 1 mps 610 mmHg 80%
    06:00 +16°C° 0.5 mm 1 mps 610 mmHg 77%
    07:00 +18°C° 0.5 mm 1 mps 611 mmHg 75%
    08:00 +18°C° 1 mm 2 mps 611 mmHg 71%
    09:00 +19°C° 1 mm 3 mps 611 mmHg 67%
    10:00 +20°C° 1 mm 3 mps 612 mmHg 64%
    11:00 +20°C° 0.9 mm 3 mps 612 mmHg 63%
    12:00 +21°C° 0.9 mm 3 mps 611 mmHg 62%
    13:00 +21°C° 0.9 mm 3 mps 611 mmHg 62%
    14:00 +21°C° 0.9 mm 3 mps 611 mmHg 61%
    15:00 +21°C° 0.9 mm 3 mps 611 mmHg 61%
    16:00 +21°C° 0.9 mm 3 mps 611 mmHg 60%
    17:00 +20°C° 0.7 mm 3 mps 611 mmHg 66%
    18:00 +19°C° 0.7 mm 2 mps 611 mmHg 71%
    19:00 +18°C° 0.7 mm 2 mps 611 mmHg 76%
    20:00 +18°C° 0.2 mm 1 mps 611 mmHg 80%
    21:00 +16°C° 0.2 mm 1 mps 611 mmHg 83%
    22:00 +14°C° 0.2 mm 1 mps 610 mmHg 87%
    23:00 +13°C° 0.3 mm 0 mps 610 mmHg 88%

    23 June, Saturday

    Time Temperature Precipitation Wind Pressure Humidity
    00:00 +13°C° 0.3 mm 0 mps 610 mmHg 90%
    01:00 +13°C° 0.3 mm 0 mps 610 mmHg 91%
    02:00 +14°C° 1.7 mm 1 mps 610 mmHg 92%
    03:00 +13°C° 1.7 mm 1 mps 610 mmHg 93%
    04:00 +13°C° 1.7 mm 1 mps 610 mmHg 94%
    05:00 +13°C° 0.9 mm 1 mps 610 mmHg 91%
    06:00 +13°C° 0.9 mm 1 mps 610 mmHg 87%
    07:00 +14°C° 0.9 mm 1 mps 610 mmHg 84%
    08:00 +14°C° 0.2 mm 1 mps 611 mmHg 80%
    09:00 +15°C° 0.2 mm 1 mps 611 mmHg 75%
    10:00 +16°C° 0.2 mm 2 mps 611 mmHg 71%
    11:00 +16°C° 0.4 mm 2 mps 611 mmHg 70%
    12:00 +17°C° 0.4 mm 2 mps 611 mmHg 69%
    13:00 +17°C° 0.4 mm 2 mps 611 mmHg 68%
    14:00 +17°C° 0.5 mm 2 mps 611 mmHg 68%
    15:00 +17°C° 0.5 mm 2 mps 611 mmHg 69%
    16:00 +17°C° 0.5 mm 2 mps 611 mmHg 70%
    17:00 +17°C° 0.7 mm 2 mps 610 mmHg 74%
    18:00 +16°C° 0.7 mm 1 mps 610 mmHg 79%
    19:00 +15°C° 0.7 mm 1 mps 610 mmHg 84%
    20:00 +15°C° 0.5 mm 1 mps 610 mmHg 86%
    21:00 +14°C° 0.5 mm 1 mps 609 mmHg 88%
    22:00 +13°C° 0.5 mm 1 mps 609 mmHg 91%
    23:00 +13°C° 0.5 mm 1 mps 609 mmHg 91%
    Show more